Jackson, Tennessee, United States (38301)
Lat: 35.61N, Lon: 88.81W
Wx Zone: TNZ052
Local Info
Past Weather Observations for Thursday, April 28, 2016

NOTE: This archive is for the closest National Weather Service station to Jackson. Information may differ from the station used for current weather conditions.

Click here for Long-term Archive

Time Weather Temperature Dewpoint Humidity Pressure Winds Precip Visibility
23:53
Clear
57°F / 14°C 55°F / 13°C 94% 29.98 in
(1015 mb)
Calm - 10SM
22:53
Clear
59°F / 15°C 55°F / 13°C 88% 29.98 in
(1015 mb)
Calm - 10SM
21:53
Clear
61°F / 16°C 57°F / 14°C 88% 29.98 in
(1015 mb)
Calm - 10SM
20:53
Clear
63°F / 17°C 57°F / 14°C 83% 29.98 in
(1015 mb)
Calm - 10SM
19:53
Clear
64°F / 18°C 55°F / 13°C 73% 29.98 in
(1015 mb)
Calm - 10SM
18:53
Clear
72°F / 22°C 54°F / 12°C 53% 29.95 in
(1014 mb)
Calm - 10SM
17:53
Clear
79°F / 26°C 52°F / 11°C 39% 29.95 in
(1014 mb)
W 3.5 mph
(W 6 kph)
- 10SM
16:53
Clear
81°F / 27°C 50°F / 10°C 34% 29.95 in
(1014 mb)
SSW 5.8 mph
(SSW 9 kph)
- 10SM
15:53
Clear
82°F / 28°C 52°F / 11°C 35% 29.92 in
(1013 mb)
SSW 5.8 mph
(SSW 9 kph)
- 10SM
14:53
Clear
81°F / 27°C 54°F / 12°C 39% 29.92 in
(1013 mb)
SSW 9.2 mph
(SSW 15 kph)
- 10SM
13:53
Clear
81°F / 27°C 54°F / 12°C 39% 29.95 in
(1014 mb)
W 8.1 mph
(W 13 kph)
- 10SM
12:53
Clear
81°F / 27°C 55°F / 13°C 42% 29.95 in
(1014 mb)
W 8.1 mph
(W 13 kph)
- 10SM
11:53
Clear
79°F / 26°C 54°F / 12°C 42% 29.95 in
(1014 mb)
SSW 9.2 mph
(SSW 15 kph)
- 10SM
10:53
Clear
77°F / 25°C 54°F / 12°C 44% 29.95 in
(1014 mb)
SSW 8.1 mph
(SSW 13 kph)
- 10SM
09:53
Clear
75°F / 24°C 57°F / 14°C 54% 29.92 in
(1013 mb)
Variable 6.9 mph
(Variable 11 kph)
- 10SM
08:53
Clear
73°F / 23°C 63°F / 17°C 69% 29.92 in
(1013 mb)
NW 9.2 mph
(NW 15 kph)
- 10SM
07:53
Clear
72°F / 22°C 63°F / 17°C 73% 29.89 in
(1012 mb)
NNW 5.8 mph
(NNW 9 kph)
- 10SM
06:53
Clear
68°F / 20°C 64°F / 18°C 88% 29.89 in
(1012 mb)
SSW 4.6 mph
(SSW 7 kph)
- 10SM
05:53
Clear
64°F / 18°C 64°F / 18°C 100% 29.86 in
(1011 mb)
SW 4.6 mph
(SW 7 kph)
- 9SM
04:53
Clear
Fog And Mist
63°F / 17°C 63°F / 17°C 100% 29.83 in
(1010 mb)
SW 5.8 mph
(SW 9 kph)
- 6SM
03:53
Clear
64°F / 18°C 64°F / 18°C 100% 29.8 in
(1009 mb)
SW 5.8 mph
(SW 9 kph)
- 10SM
02:53
Clear
66°F / 19°C 64°F / 18°C 94% 29.77 in
(1008 mb)
SSE 9.2 mph
(SSE 15 kph)
- 9SM
01:53
Partly Cloudy
66°F / 19°C 64°F / 18°C 94% 29.77 in
(1008 mb)
SW 5.8 mph
(SW 9 kph)
- 10SM
00:53
Mostly Cloudy
66°F / 19°C 64°F / 18°C 94% 29.77 in
(1008 mb)
SW 9.2 mph
(SW 15 kph)
- 10SM
Time Weather Temperature Dewpoint Humidity Pressure Winds Precip Visibility


Weather for websites

WeatherForYou.com, LLC is not responsible for any damages or problems caused by this service. Current weather conditions are obtained from the closest station including government and personal stations which may have varying degrees of accuracy. Weather forecasts are derived from the NOAA NDFD. Like all things, this site belongs to Jesus Christ... He just trusts us to maintain it. If you have any questions or comments email webmaster@weatherforyou.com

Copyright © 2016, WeatherForYou.com LLC. All rights reserved.